Regional Weather Roundup
Issued by NWS

Home | Current Version | Previous Version | Graphics & Text | Print | Product List | Glossary On
Versions: 1 2 3 4 5 6 7 8 9 10 11 12 13 14 15 16 17 18 19 20 21 22 23 24 25 26 27 28 29 30 31 32 33 34 35 36 37 38 39 40 41 42 43 44 45 46 47 48 49 50
284
ASUS43 KMKX 311900
RWRWI

WISCONSIN REGIONAL WEATHER ROUNDUP
NATIONAL WEATHER SERVICE MILWAUKEE/SULLIVAN WI
200 PM CDT TUE MAY 31 2016

NOTE: "FAIR" INDICATES FEW OR NO CLOUDS BELOW 12,000 FEET WITH NO
SIGNIFICANT WEATHER AND/OR OBSTRUCTIONS TO VISIBILITY.

WIZ001-002-006>008-014>016-023>028-312000-
NORTHWEST WISCONSIN

CITY           SKY/WX    TMP DP  RH WIND       PRES   REMARKS
SUPERIOR ARPT  RAIN      42  41  99 E16       29.95S
ASHLAND        CLOUDY    51  47  86 N10       29.92F
HAYWARD        LGT RAIN  67  60  78 S6        29.90S
SIREN          CLOUDY    69  60  74 S13       29.88S
CUMBERLAND     LGT RAIN  66  61  82 S7        29.90S
RICE LAKE      DRIZZLE   69  62  78 SE6       29.91S
CHETEK         CLOUDY    70  63  78 CALM      29.90S
LADYSMITH      MOSUNNY   77  61  57 SE15G24   29.91F
EAU CLAIRE     NOT AVBL
MENOMONIE      CLOUDY    72  70  92 S5        29.89S
NEW RICHMOND   CLOUDY    70  61  73 S9        29.89F
OSCEOLA        CLOUDY    70  62  75 S12       29.91S
$$

WIZ003>005-009-010-017-018-312000-
NORTH CENTRAL WISCONSIN

CITY           SKY/WX    TMP DP  RH WIND       PRES   REMARKS
MANITOWISH WTR NOT AVBL
ARBOR VITAE    MOSUNNY   72  55  54 SE16G23   29.98F
WOODRUFF       MOSUNNY   72  55  54 SE16G23   29.98F
RHINELANDER    PTSUNNY   73  51  46 S15G23    30.00S
EAGLE RIVER      N/A     70  49  47 SE12G18   30.00F
LAND O LAKES   CLOUDY    71  50  47 SE14G20   30.01F
PHILLIPS       CLOUDY    72  58  61 S10       29.93F
TOMAHAWK       PTSUNNY   73  55  54 SE8       29.98F
MEDFORD        MOSUNNY   72  60  65 SE9G23    29.95F
MERRILL        CLOUDY    72  56  57 SE15G23   29.99F
$$

WIZ029-030-035-036-043>047-312000-
CENTRAL WISCONSIN

CITY           SKY/WX    TMP DP  RH WIND       PRES   REMARKS
WAUSAU         CLOUDY    73  55  53 SE15      29.97S
MOSINEE        MOSUNNY   70  57  64 SE14      30.00S
MARSHFIELD     CLOUDY    73  59  61 S15G25    29.95F
STEVENS POINT  CLOUDY    69  56  62 SE12G20   30.00S
WAUPACA        CLOUDY    73  56  55 E13       30.01S
WAUTOMA        RAIN     N/A N/A N/A SW12G23   30.03R
WISC RAPIDS    CLOUDY    78  60  53 SE16G24   29.98S
CAMP DOUGLAS   NOT AVBL
$$

WIZ011>013-019>022-031-037>040-048>050-312000-
NORTHEAST WISCONSIN

CITY           SKY/WX    TMP DP  RH WIND       PRES   REMARKS
ANTIGO         MOSUNNY   69  56  62 SE15G22   30.03R
SHAWANO        SUNNY     71  54  54 E13       30.04S
OCONTO         SUNNY     63  47  56 E10G16    30.05S
STURGEON BAY   MOSUNNY   64  50  59 E9        30.06S
GREEN BAY      SUNNY     69  56  62 NE10      30.04R
MANITOWOC      NOT AVBL
APPLETON       MOSUNNY   72  54  53 E9        30.00F
CLINTONVILLE   PTSUNNY   70  54  56 E12       30.02S
OSHKOSH        CLOUDY    73  56  54 S10       30.01R
$$

WIZ032>034-041-042-053>061-312000-
SOUTHWEST WISCONSIN

CITY           SKY/WX    TMP DP  RH WIND       PRES   REMARKS
LA CROSSE      MOSUNNY   83  62  49 S9        29.88F HX  84
SPARTA         PTSUNNY   79  63  58 S13       29.92F HX  81
VIROQUA        MOSUNNY   78  62  57 SE10      29.93F
BOSCOBEL       NOT AVBL
PRAIRIE DU CHI CLOUDY    78  62  57 SE8       29.90F HX  80
PLATTEVILLE    CLOUDY    69  65  86 SE15      29.98S
$$

WIZ056-057-062-063-064-067-068-312000-
SOUTH CENTRAL WISCONSIN

CITY           SKY/WX    TMP DP  RH WIND       PRES   REMARKS
REEDSBURG      DRIZZLE   65  64  96 SE3       29.98S
BARABOO/DELLS  LGT RAIN  64  60  87 SE10G16   29.97F
LONE ROCK      NOT AVBL
MINERAL POINT  CLOUDY    68  64  88 SE9       29.99R
MADISON        LGT RAIN  67  63  87 S12       30.01S
MIDDLETON      CLOUDY    69  63  83 SE6       30.00F
WATERTOWN      LGT RAIN  65  65 100 S7        30.04R
MONROE         LGT RAIN  63  61  94 SE6       30.01F
JANESVILLE     LGT RAIN  64  64 100 CALM      30.03F
$$

WIZ051-052-058>065-066-070>072-312000-
SOUTHEAST WISCONSIN

CITY           SKY/WX    TMP DP  RH WIND       PRES   REMARKS
MILWAUKEE      PTSUNNY   68  55  63 E9        30.01S
WAUKESHA       PTSUNNY   72  50  46 SW6       30.04R
MILWAUKEE/TIMM PTSUNNY   72  48  43 E8        30.02S
RACINE         MOSUNNY   72  52  49 SE8       30.02F
BURLINGTON     CLOUDY    73  53  47 W16       30.04R
KENOSHA        MOSUNNY   74  56  53 E10       30.00F
FOND DU LAC    CLOUDY    73  55  53 S14G24    30.03R
SHEBOYGAN      CLOUDY    64  53  67 E9        30.03S
WEST BEND      PTSUNNY   70  50  49 SE8       30.02S
JUNEAU         CLOUDY    71  53  53 S16G22    30.04R
$$

LSZ147-162-312000-
LAKE SUPERIOR

STATION/POSITION TIME  TEMP    WIND        PRES    WAVE
                       AIR SEA DIR/SP/G            HT/PER
                 (UTC) (F)     (DEG/KT/KT) (MB)    (FT/S)
W MID LAKE BUOY  1750   42 38   80/ 19/ 21 1016.2F   4/ 5
DEVILS ISLAND    1800   43      70/ 20/ 23 1015.1F
SAXON HARBOR     1800          140/  1/  9 1012.5F
$$

LMZ867-665-643>646-312000-
LAKE MICHIGAN

STATION/POSITION TIME  TEMP    WIND        PRES    WAVE
                       AIR SEA DIR/SP/G            HT/PER
                 (UTC) (F)     (DEG/KT/KT) (MB)    (FT/S)
CHAMBERS ISLAND  1800   55      10/ 10/ 12 1018.6F
N MID LAKE BUOY  1750   48 48   20/ 10/ 12 1018.2F   1/ 4
NORTHPORT PIER   1800   53      80/  7/  9 1018.6F
SISTER BAY       1820   67     110/ 11/ 16   N/A
ALGOMA LAKESHORE 1817           40/ 19/ 24   N/A
KEWAUNEE LAKESHO 1800   50      20/ 10/ 15 1017.4F
SHEBOYGAN LAKESH 1800   49      10/ 11/ 11 1017.7F
PORT WASHINGTON  1840   55      30/  8/ 11 1017.6S
S MID LAKE BUOY  1750   57 55   60/  6/  6 1016.1R   0
KENOSHA   LAKESH 1800   56      10/  8/  8 1016.3F
$$

TC  - TEMPERATURE IN CELSIUS
VSB - VISIBILITY IN STATUTE MILES
WCI - WIND CHILL INDEX
HX  - HEAT INDEX





USA.gov is the U.S. government's official web portal to all federal, state and local government web resources and services.